Wind_Speed
35 33 39 41 35 31 34 34 35 37 32 28 29 31 29 27 27 27 28 29 28 30 33 34 35 36 36 36 36 36 38 41 44 46 47 49 51 52 56 58 60 62 63 63
44 38 45 39 39 37 37 36 37 37 34 30 30 30 31 28 31 29 30 31 31 33 36 39 39 39 40 42 42 42 43 46 49 49 50 51 53 56 59 61 63 64 67 70
48 46 49 47 44 41 42 38 41 37 34 32 33 30 33 32 35 32 34 35 35 36 38 41 43 44 44 46 48 48 48 51 51 52 54 56 58 61 62 66 71 74 74 76
49 51 54 52 49 51 45 43 44 41 38 36 33 28 32 38 40 38 39 39 39 39 41 42 45 47 50 52 53 55 53 55 53 55 57 60 65 68 70 70 75 78 81 85
50 51 55 57 57 55 53 50 51 48 43 40 36 35 36 43 46 48 45 45 45 44 45 46 48 51 54 57 59 58 60 60 59 62 63 68 70 71 74 77 80 83 89 90
56 54 58 57 58 59 57 57 58 55 49 39 45 45 34 43 54 52 53 52 50 49 50 52 52 54 58 61 62 63 62 62 64 65 68 70 72 76 80 85 88 91 91 91
63 58 54 56 56 55 55 59 60 56 54 49 51 51 43 48 54 56 56 55 54 54 55 56 58 59 60 60 61 64 67 68 67 69 73 77 80 85 86 90 87 88 92 94
60 57 55 53 57 56 53 56 58 59 58 55 53 50 48 55 54 55 56 56 57 59 60 61 64 65 66 67 69 71 72 69 72 77 80 82 87 89 93 93 96 98 93 96
66 62 60 58 56 58 52 50 60 59 57 56 53 53 51 53 57 57 57 60 63 65 67 69 69 69 70 72 73 74 75 76 77 80 84 88 90 96 94 103 101 102 107 103
71 68 65 60 61 59 54 54 57 58 56 57 52 50 52 56 58 59 60 64 68 70 72 71 70 72 73 75 77 78 77 78 81 86 92 95 97 99 104 108 105 108 108 106
76 74 70 67 63 65 64 60 63 65 60 59 56 53 57 58 59 61 65 68 72 74 73 73 74 73 72 73 77 82 86 88 92 96 99 101 103 107 110 110 110 110 113 112
72 78 76 73 70 71 68 67 68 67 66 68 67 58 62 62 64 65 69 72 74 75 74 75 76 77 79 83 83 85 88 92 95 99 101 106 109 112 110 110 118 121 116 118
75 77 79 78 73 71 72 75 73 74 74 66 74 60 65 66 69 72 75 76 78 80 80 81 80 82 86 88 91 93 96 99 102 106 110 110 109 116 116 123 110 107 111 121
86 88 84 80 82 81 78 77 78 79 77 69 71 69 73 73 73 75 80 83 84 83 85 85 83 84 87 91 96 100 104 106 107 103 112 114 114 115 106 109 117 121 123 130
86 87 87 83 82 82 80 79 81 82 74 84 69 79 81 81 81 83 84 86 89 91 91 92 95 96 98 97 96 102 106 105 104 112 110 107 110 112 117 120 128 129 131 131
90 88 91 86 86 89 89 84 83 81 79 82 79 82 89 87 88 89 88 90 91 94 97 100 101 98 98 99 94 91 92 95 100 99 103 110 121 128 129 130 136 130 133 136
95 95 95 90 92 95 99 77 87 83 81 85 87 80 89 92 89 90 93 95 96 95 94 93 93 91 93 96 95 97 100 99 107 112 118 123 128 135 134 139 138 138 142 142
97 96 96 97 99 104 82 87 87 89 87 90 90 88 91 93 97 91 95 92 93 95 90 92 93 95 93 95 102 104 107 113 119 121 127 133 135 139 142 145 145 146 144 140
95 96 97 96 98 97 88 88 91 93 87 90 90 92 93 93 97 97 93 94 96 97 98 99 99 100 103 104 107 113 117 122 133 134 135 140 145 146 149 150 152 150 143 136
96 100 100 96 98 98 87 94 94 97 95 92 94 95 98 103 100 95 96 96 96 96 100 102 103 105 109 111 113 120 122 132 136 140 142 148 150 150 152 154 151 143 135 128
97 97 100 101 103 100 97 103 105 105 98 96 97 102 103 102 98 100 103 102 101 104 108 104 109 110 112 113 121 126 132 137 142 142 147 151 152 153 156 155 143 134 129 128
95 98 101 105 109 110 108 102 105 104 104 106 110 106 104 96 100 106 107 107 107 106 110 114 114 115 119 126 133 135 139 145 145 148 149 149 153 155 157 143 136 132 130 126
106 108 110 112 117 116 109 109 108 109 113 117 116 113 104 105 111 112 112 111 112 114 114 116 119 125 132 136 136 140 144 147 150 152 152 154 157 152 143 136 131 129 127 125
113 113 114 117 115 117 114 108 112 121 125 124 121 116 116 117 118 120 116 117 116 116 125 129 131 132 140 142 143 147 147 152 153 153 159 160 153 140 135 135 130 128 122 118
119 123 123 124 125 126 128 131 130 129 130 123 119 117 120 121 124 126 121 121 127 130 132 133 135 141 144 144 145 148 151 151 155 160 160 146 139 137 130 130 128 121 116 112
131 133 135 138 134 135 133 134 133 125 124 126 123 120 123 127 131 134 129 134 135 137 140 139 144 147 147 149 152 149 152 156 159 153 140 139 133 130 128 123 120 117 113 108
Wind_Direction
261 263 263 259 262 260 257 257 257 253 253 250 250 251 251 258 261 263 269 275 282 287 289 291 292 293 296 296 295 297 301 302 302 303 302 300 298 299 298 299 301 302 301 299
258 261 263 265 264 261 257 257 262 261 259 252 247 250 250 256 260 265 270 277 283 288 292 293 293 292 295 297 294 295 297 299 299 298 296 294 293 291 292 294 294 294 294 294
251 256 265 264 263 265 262 259 262 264 259 254 252 254 259 259 265 266 271 276 280 287 290 290 291 290 290 291 287 286 290 294 294 293 291 291 291 291 290 290 292 295 296 296
255 255 257 262 265 265 264 262 265 267 262 260 257 252 267 271 274 274 277 277 278 280 284 285 286 287 290 290 288 284 288 290 293 291 288 285 286 287 287 289 289 291 293 297
257 256 257 259 259 263 264 266 268 269 268 265 272 265 269 273 277 279 280 280 279 280 282 285 286 285 284 286 286 285 284 288 291 291 287 288 289 286 282 285 288 292 294 296
259 256 259 261 264 265 265 266 267 270 270 271 272 273 271 273 273 278 279 280 281 282 285 285 285 285 287 288 287 286 285 290 292 289 287 286 284 283 283 288 290 291 292 292
259 263 263 265 265 267 267 266 266 268 271 270 268 271 276 275 271 273 275 277 278 281 282 282 284 286 287 287 287 286 286 285 286 284 280 281 280 284 287 289 291 294 293 293
259 262 262 264 263 262 267 267 268 264 265 266 270 275 274 272 269 271 275 278 278 279 281 280 280 281 282 283 283 281 282 280 279 280 282 282 284 285 290 291 292 292 293 290
252 255 257 259 262 264 263 269 263 264 264 264 266 267 267 268 269 272 275 276 278 278 277 278 281 285 284 285 283 280 277 277 279 279 280 284 285 287 287 287 290 292 292 287
261 260 259 261 261 264 264 261 264 266 265 265 264 266 269 268 270 273 274 274 275 276 278 283 284 284 283 280 279 278 279 280 281 282 282 283 285 284 285 287 290 291 289 295
262 263 261 260 262 261 263 265 267 267 269 269 268 268 266 271 272 273 274 274 274 276 278 279 279 280 280 277 277 279 280 280 279 279 280 281 282 283 286 288 288 290 288 291
262 263 263 262 259 263 264 264 266 265 263 263 264 266 267 269 270 270 271 272 273 274 275 276 276 277 277 276 275 275 275 277 278 279 282 282 284 286 288 289 286 286 289 295
256 258 257 260 262 263 261 262 263 263 264 267 270 274 272 272 273 273 273 274 276 275 274 274 276 278 278 278 277 277 277 278 280 281 283 286 289 285 286 285 294 298 303 303
255 256 259 260 259 259 261 261 263 265 267 269 269 269 271 272 273 274 273 273 274 275 274 277 277 277 278 280 279 279 280 281 281 286 285 284 285 292 297 301 300 307 306 305
258 257 257 257 258 259 258 261 264 266 267 268 270 271 274 274 276 275 276 277 276 276 277 278 278 278 280 282 284 280 277 279 285 279 283 294 297 303 306 303 306 306 307 306
258 259 259 257 260 262 263 261 264 267 270 270 271 271 276 275 276 280 281 280 282 282 279 277 278 279 280 283 282 292 286 286 290 301 299 298 299 305 308 306 307 306 307 310
263 260 259 257 259 261 262 270 265 266 269 274 274 275 274 276 277 279 282 283 283 283 278 278 283 284 289 287 291 298 302 303 301 304 303 306 307 308 308 306 309 309 309 309
264 263 263 260 259 260 266 263 265 269 271 274 275 274 277 278 280 282 286 282 284 282 283 288 289 293 294 297 300 302 305 306 306 305 307 308 309 309 309 310 308 307 308 308
263 261 265 263 261 264 263 264 265 269 270 275 278 278 281 279 283 284 285 285 286 290 293 292 295 296 297 299 300 304 304 305 306 305 306 308 309 309 308 308 308 308 308 307
257 260 260 259 260 262 263 263 263 268 270 275 278 278 279 283 283 282 288 291 289 290 293 292 295 295 296 299 301 303 302 303 306 306 306 306 305 306 307 307 306 307 307 307
262 257 255 257 259 261 263 264 266 268 273 275 276 277 279 280 283 286 289 289 289 287 292 294 294 296 298 298 299 300 300 303 302 302 302 303 304 304 307 307 306 306 306 306
254 255 257 257 259 262 269 270 273 274 274 275 278 280 281 283 286 288 286 288 291 292 292 294 295 296 296 295 296 298 298 300 301 302 302 303 304 304 305 304 305 304 304 304
256 257 255 256 260 268 270 271 272 273 275 278 280 280 282 283 284 289 290 289 290 292 293 294 293 292 293 297 296 296 299 300 301 302 302 303 304 304 303 303 303 303 303 303
258 259 261 261 265 269 270 266 266 271 274 277 280 285 284 288 290 291 291 291 290 289 291 291 290 291 293 295 296 298 298 299 300 300 302 304 303 302 301 302 302 302 302 302
255 258 261 262 263 265 267 269 271 273 275 278 282 281 283 286 287 288 287 286 286 288 289 290 291 295 297 296 296 296 297 298 300 301 302 300 300 300 300 300 301 301 301 301
256 257 259 261 264 266 268 271 275 275 276 278 279 278 279 281 282 285 282 284 285 286 287 288 292 295 296 295 295 296 296 298 300 299 298 298 298 299 299 299 300 300 301 301
Height
10727 10730 10725 10725 10730 10732 10730 10731 10731 10731 10736 10738 10737 10737 10738 10739 10739 10740 10740 10739 10738 10738 10737 10736 10735 10734 10734 10733 10732 10731 10729 10727 10725 10722 10720 10718 10717 10715 10712 10710 10707 10703 10701 10699
10717 10722 10714 10720 10721 10722 10722 10722 10721 10723 10726 10730 10729 10729 10731 10732 10731 10732 10732 10731 10731 10731 10730 10729 10729 10728 10726 10724 10722 10721 10720 10718 10715 10713 10711 10708 10705 10702 10700 10696 10693 10690 10688 10686
10706 10712 10707 10709 10710 10711 10712 10714 10711 10715 10718 10720 10721 10724 10722 10723 10721 10723 10723 10723 10723 10723 10722 10721 10720 10719 10717 10716 10714 10712 10710 10708 10704 10701 10697 10694 10691 10688 10685 10682 10679 10677 10673 10669
10698 10701 10695 10698 10701 10698 10703 10704 10703 10705 10708 10709 10714 10719 10715 10710 10709 10711 10711 10712 10713 10712 10712 10711 10710 10709 10708 10706 10703 10700 10697 10694 10691 10687 10685 10682 10679 10676 10673 10669 10665 10661 10657 10653
10687 10687 10686 10687 10685 10688 10692 10693 10693 10694 10697 10700 10704 10705 10707 10700 10698 10697 10699 10699 10699 10700 10700 10699 10698 10697 10695 10693 10690 10687 10684 10681 10679 10675 10672 10668 10665 10661 10656 10652 10647 10644 10639 10634
10670 10676 10674 10675 10675 10676 10681 10680 10680 10681 10685 10695 10690 10688 10703 10694 10683 10686 10685 10686 10686 10687 10687 10686 10686 10685 10683 10680 10677 10674 10671 10668 10665 10661 10657 10653 10649 10644 10638 10634 10630 10625 10619 10613
10653 10662 10665 10664 10664 10665 10665 10666 10667 10672 10673 10679 10676 10676 10690 10683 10675 10674 10673 10674 10674 10675 10674 10674 10673 10672 10670 10668 10665 10662 10659 10655 10651 10647 10640 10636 10631 10625 10620 10615 10609 10604 10597 10591
10643 10647 10649 10653 10651 10652 10656 10652 10653 10654 10658 10662 10664 10671 10675 10664 10664 10661 10661 10661 10660 10660 10660 10659 10659 10658 10656 10653 10650 10647 10644 10640 10635 10630 10624 10617 10611 10604 10600 10594 10589 10582 10575 10569
10627 10632 10636 10639 10639 10639 10647 10645 10633 10639 10644 10647 10654 10655 10658 10654 10651 10649 10649 10646 10644 10643 10643 10641 10643 10642 10639 10636 10633 10630 10626 10622 10617 10610 10603 10597 10592 10585 10580 10571 10567 10560 10553 10545
10612 10619 10624 10627 10628 10627 10629 10628 10624 10626 10630 10630 10639 10643 10643 10639 10638 10638 10636 10633 10629 10626 10625 10626 10627 10625 10622 10620 10617 10612 10608 10603 10598 10590 10582 10576 10571 10564 10555 10550 10542 10534 10527 10517
10594 10602 10611 10613 10617 10611 10612 10616 10613 10612 10617 10616 10622 10629 10628 10628 10626 10623 10620 10618 10613 10610 10610 10610 10609 10608 10606 10603 10599 10594 10589 10583 10576 10568 10561 10555 10546 10538 10533 10526 10518 10511 10501 10489
10579 10581 10592 10596 10598 10597 10603 10601 10598 10597 10599 10598 10602 10620 10613 10613 10609 10606 10603 10601 10597 10595 10595 10593 10591 10590 10587 10581 10577 10572 10566 10561 10554 10547 10540 10530 10523 10515 10509 10501 10491 10481 10469 10457
10564 10563 10570 10576 10585 10586 10584 10579 10580 10579 10579 10595 10586 10611 10593 10592 10592 10590 10587 10584 10582 10581 10579 10575 10574 10571 10565 10560 10555 10549 10542 10537 10530 10522 10515 10507 10497 10487 10481 10472 10461 10449 10437 10424
10543 10545 10555 10564 10560 10563 10566 10566 10564 10562 10569 10583 10579 10582 10575 10573 10573 10571 10567 10565 10566 10564 10560 10558 10553 10547 10543 10539 10532 10526 10521 10515 10506 10496 10489 10478 10468 10460 10447 10440 10429 10416 10403 10390
10525 10529 10533 10542 10541 10539 10548 10550 10547 10548 10563 10546 10577 10557 10550 10550 10549 10545 10544 10545 10543 10542 10541 10537 10529 10523 10520 10514 10508 10501 10494 10488 10479 10472 10461 10448 10440 10428 10419 10410 10396 10381 10368 10355
10507 10512 10510 10522 10525 10518 10517 10533 10537 10538 10536 10531 10542 10544 10527 10530 10524 10522 10519 10518 10519 10518 10515 10510 10504 10500 10495 10489 10481 10475 10467 10461 10454 10439 10429 10420 10410 10396 10386 10375 10360 10347 10334 10316
10484 10490 10491 10504 10497 10494 10488 10533 10507 10518 10521 10513 10512 10528 10505 10502 10507 10503 10500 10497 10491 10488 10485 10482 10478 10473 10466 10461 10452 10444 10435 10429 10420 10410 10398 10385 10377 10366 10352 10341 10324 10309 10296 10282
10465 10470 10468 10479 10475 10465 10511 10492 10494 10489 10496 10494 10491 10494 10488 10483 10480 10483 10479 10473 10467 10461 10459 10455 10450 10446 10438 10431 10423 10415 10405 10399 10389 10378 10365 10354 10345 10332 10317 10302 10291 10277 10261 10247
10446 10448 10447 10447 10453 10456 10477 10480 10472 10466 10481 10468 10469 10469 10462 10460 10461 10462 10454 10447 10443 10440 10435 10429 10423 10417 10409 10401 10393 10385 10376 10366 10358 10345 10334 10323 10310 10296 10287 10273 10258 10243 10226 10210
10425 10426 10424 10426 10425 10430 10460 10448 10448 10444 10456 10456 10444 10442 10439 10436 10435 10436 10429 10425 10421 10417 10411 10404 10397 10389 10380 10371 10362 10355 10346 10338 10322 10313 10304 10292 10281 10268 10256 10242 10226 10210 10194 10179
10400 10401 10403 10405 10400 10408 10425 10424 10423 10420 10432 10427 10423 10423 10420 10417 10415 10411 10406 10401 10396 10391 10384 10376 10369 10360 10352 10345 10336 10328 10319 10307 10298 10290 10279 10265 10251 10236 10221 10207 10192 10179 10165 10151
10376 10378 10381 10380 10377 10380 10395 10391 10391 10394 10393 10395 10396 10398 10397 10396 10391 10386 10381 10376 10369 10363 10354 10347 10340 10331 10325 10320 10311 10304 10295 10279 10270 10258 10245 10232 10218 10204 10189 10175 10161 10147 10134 10122
10352 10354 10358 10356 10356 10358 10360 10362 10364 10363 10361 10363 10367 10370 10369 10366 10363 10358 10352 10347 10340 10333 10326 10319 10313 10305 10297 10292 10285 10278 10264 10251 10237 10224 10212 10200 10185 10171 10157 10143 10130 10117 10105 10091
10325 10327 10329 10329 10331 10330 10328 10330 10334 10335 10335 10335 10338 10336 10336 10333 10329 10326 10321 10316 10309 10303 10301 10296 10286 10277 10269 10262 10255 10244 10232 10218 10205 10191 10179 10164 10151 10138 10125 10113 10099 10086 10073 10060
10303 10299 10304 10301 10303 10302 10299 10300 10304 10307 10311 10310 10310 10309 10307 10305 10302 10299 10294 10287 10282 10276 10271 10265 10257 10250 10239 10230 10221 10211 10200 10185 10172 10158 10147 10134 10120 10109 10095 10082 10070 10057 10043 10032
10278 10276 10270 10268 10275 10274 10274 10273 10275 10278 10280 10283 10283 10282 10282 10277 10273 10269 10264 10258 10252 10246 10240 10233 10227 10219 10208 10199 10190 10179 10165 10153 10142 10129 10114 10103 10090 10079 10066 10054 10040 10027 10014 10004